Year,Month,Day,Hour,Minute,Value (Times are PST for temperature in C)
2010,10,01,00,00,12.30
2010,10,01,00,01,12.40
2010,10,01,00,02,12.40
2010,10,01,00,03,12.40
2010,10,01,00,04,12.40
2010,10,01,00,05,12.40
2010,10,01,00,06,12.50
2010,10,01,00,07,12.50
2010,10,01,00,08,12.50
2010,10,01,00,09,12.50
2010,10,01,00,10,12.50
2010,10,01,00,11,12.60
2010,10,01,00,12,12.60
2010,10,01,00,13,12.60
2010,10,01,00,14,12.60
2010,10,01,00,15,12.60
2010,10,01,00,16,12.50
2010,10,01,00,17,12.50
2010,10,01,00,18,12.50
2010,10,01,00,19,12.40
2010,10,01,00,20,12.40
2010,10,01,00,21,12.40
2010,10,01,00,22,12.40
2010,10,01,00,23,12.30
2010,10,01,00,24,12.30
2010,10,01,00,25,12.30
2010,10,01,00,26,12.30
2010,10,01,00,27,12.40
2010,10,01,00,28,12.40
2010,10,01,00,29,12.40
2010,10,01,00,30,12.40
2010,10,01,00,31,12.50
2010,10,01,00,32,12.50
2010,10,01,00,33,12.60
2010,10,01,00,34,12.60
2010,10,01,00,35,12.60
2010,10,01,00,36,12.70
2010,10,01,00,37,12.70
2010,10,01,00,38,12.70
2010,10,01,00,39,12.70
2010,10,01,00,40,12.70
2010,10,01,00,41,12.80
2010,10,01,00,42,12.80
2010,10,01,00,43,12.80
2010,10,01,00,44,12.80
2010,10,01,00,45,12.80
2010,10,01,00,46,12.90
2010,10,01,00,47,13.00
2010,10,01,00,48,13.10
2010,10,01,00,49,13.10
2010,10,01,00,50,13.20
2010,10,01,00,51,13.30
2010,10,01,00,52,13.30
2010,10,01,00,53,13.30
2010,10,01,00,54,13.30
2010,10,01,00,55,13.30
2010,10,01,00,56,13.40
2010,10,01,00,57,13.40
2010,10,01,00,58,13.50
2010,10,01,00,59,13.50
2010,10,01,01,00,13.50
2010,10,01,01,01,13.50
2010,10,01,01,02,13.50
2010,10,01,01,03,13.60
2010,10,01,01,04,13.60
2010,10,01,01,05,13.60
2010,10,01,01,06,13.60
2010,10,01,01,07,13.60
2010,10,01,01,08,13.70
2010,10,01,01,09,13.70
2010,10,01,01,10,13.70
2010,10,01,01,11,13.70
2010,10,01,01,12,13.70
2010,10,01,01,13,13.70
2010,10,01,01,14,13.70
2010,10,01,01,15,13.70
2010,10,01,01,16,13.70
2010,10,01,01,17,13.70
2010,10,01,01,18,13.70
2010,10,01,01,19,13.70
2010,10,01,01,20,13.70
2010,10,01,01,21,13.70
2010,10,01,01,22,13.70
2010,10,01,01,23,13.70
2010,10,01,01,24,13.70
2010,10,01,01,25,13.70
2010,10,01,01,26,13.70
2010,10,01,01,27,13.70
2010,10,01,01,28,13.80
2010,10,01,01,29,13.80
2010,10,01,01,30,13.80
2010,10,01,01,31,13.80
2010,10,01,01,32,13.80
2010,10,01,01,33,13.80
2010,10,01,01,34,13.70
2010,10,01,01,35,13.80
2010,10,01,01,36,13.80
2010,10,01,01,37,13.80
2010,10,01,01,38,13.80
2010,10,01,01,39,13.90
2010,10,01,01,40,13.90
2010,10,01,01,41,13.90
2010,10,01,01,42,13.90
2010,10,01,01,43,13.90
2010,10,01,01,44,13.90
2010,10,01,01,45,13.80
2010,10,01,01,46,13.80
2010,10,01,01,47,13.80
2010,10,01,01,48,13.80
2010,10,01,01,49,13.80
2010,10,01,01,50,13.80
2010,10,01,01,51,13.80
2010,10,01,01,52,13.80
2010,10,01,01,53,13.80
2010,10,01,01,54,13.80
2010,10,01,01,55,13.80
2010,10,01,01,56,13.80
2010,10,01,01,57,13.70
2010,10,01,01,58,13.70
2010,10,01,01,59,13.70
2010,10,01,02,00,13.70
2010,10,01,02,01,13.70
2010,10,01,02,02,13.70
2010,10,01,02,03,13.70
2010,10,01,02,04,13.70
2010,10,01,02,05,13.70
2010,10,01,02,06,13.70
2010,10,01,02,07,13.70
2010,10,01,02,08,13.60
2010,10,01,02,09,13.60
2010,10,01,02,10,13.60
2010,10,01,02,11,13.60
2010,10,01,02,12,13.60
2010,10,01,02,13,13.60
2010,10,01,02,14,13.60
2010,10,01,02,15,13.60
2010,10,01,02,16,13.60
2010,10,01,02,17,13.60
2010,10,01,02,18,13.60
2010,10,01,02,19,13.60
2010,10,01,02,20,13.50
2010,10,01,02,21,13.50
2010,10,01,02,22,13.50
2010,10,01,02,23,13.50
2010,10,01,02,24,13.50
2010,10,01,02,25,13.50
2010,10,01,02,26,13.50
2010,10,01,02,27,13.50
2010,10,01,02,28,13.60
2010,10,01,02,29,13.60
2010,10,01,02,30,13.60
2010,10,01,02,31,13.70
2010,10,01,02,32,13.70
2010,10,01,02,33,13.70
2010,10,01,02,34,13.80
2010,10,01,02,35,13.80
2010,10,01,02,36,13.80
2010,10,01,02,37,13.80
2010,10,01,02,38,13.80
2010,10,01,02,39,13.80
2010,10,01,02,40,13.80
2010,10,01,02,41,13.80
2010,10,01,02,42,13.80
2010,10,01,02,43,13.80
2010,10,01,02,44,13.80
2010,10,01,02,45,13.90
2010,10,01,02,46,13.90
2010,10,01,02,47,13.90
2010,10,01,02,48,14.00
2010,10,01,02,49,14.00
2010,10,01,02,50,14.10
2010,10,01,02,51,14.10
2010,10,01,02,52,14.10
2010,10,01,02,53,14.10
2010,10,01,02,54,14.20
2010,10,01,02,55,14.20
2010,10,01,02,56,14.20
2010,10,01,02,57,14.20
2010,10,01,02,58,14.20
2010,10,01,02,59,14.20
2010,10,01,03,00,14.20
2010,10,01,03,01,14.20
2010,10,01,03,02,14.20
2010,10,01,03,03,14.20
2010,10,01,03,04,14.20
2010,10,01,03,05,14.30
2010,10,01,03,06,14.30
2010,10,01,03,07,14.40
2010,10,01,03,08,14.40
2010,10,01,03,09,14.40
2010,10,01,03,10,14.40
2010,10,01,03,11,14.50
2010,10,01,03,12,14.40
2010,10,01,03,13,14.40
2010,10,01,03,14,14.40
2010,10,01,03,15,14.40
2010,10,01,03,16,14.40
2010,10,01,03,17,14.40
2010,10,01,03,18,14.40
2010,10,01,03,19,14.30
2010,10,01,03,20,14.30
2010,10,01,03,21,14.30
2010,10,01,03,22,14.30
2010,10,01,03,23,14.20
2010,10,01,03,24,14.20
2010,10,01,03,25,14.20
2010,10,01,03,26,14.20
2010,10,01,03,27,14.20
2010,10,01,03,28,14.20
2010,10,01,03,29,14.20
2010,10,01,03,30,14.20
2010,10,01,03,31,14.20
2010,10,01,03,32,14.20
2010,10,01,03,33,14.20
2010,10,01,03,34,14.20
2010,10,01,03,35,14.20
2010,10,01,03,36,14.20
2010,10,01,03,37,14.10
2010,10,01,03,38,14.10
2010,10,01,03,39,14.10
2010,10,01,03,40,14.00
2010,10,01,03,41,14.00
2010,10,01,03,42,13.90
2010,10,01,03,43,13.90
2010,10,01,03,44,13.90
2010,10,01,03,45,13.90
2010,10,01,03,46,13.80
2010,10,01,03,47,13.80
2010,10,01,03,48,13.80
2010,10,01,03,49,13.80
2010,10,01,03,50,13.80
2010,10,01,03,51,13.70
2010,10,01,03,52,13.70
2010,10,01,03,53,13.70
2010,10,01,03,54,13.70
2010,10,01,03,55,13.70
2010,10,01,03,56,13.70
2010,10,01,03,57,13.70
2010,10,01,03,58,13.70
2010,10,01,03,59,13.70
2010,10,01,04,00,13.70
2010,10,01,04,01,13.70
2010,10,01,04,02,13.70
2010,10,01,04,03,13.60
2010,10,01,04,04,13.60
2010,10,01,04,05,13.60
2010,10,01,04,06,13.60
2010,10,01,04,07,13.60
2010,10,01,04,08,13.60
2010,10,01,04,09,13.60
2010,10,01,04,10,13.60
2010,10,01,04,11,13.50
2010,10,01,04,12,13.50
2010,10,01,04,13,13.40
2010,10,01,04,14,13.40
2010,10,01,04,15,13.30
2010,10,01,04,16,13.30
2010,10,01,04,17,13.30
2010,10,01,04,18,13.20
2010,10,01,04,19,13.20
2010,10,01,04,20,13.10
2010,10,01,04,21,13.10
2010,10,01,04,22,13.00
2010,10,01,04,23,13.00
2010,10,01,04,24,13.00
2010,10,01,04,25,12.90
2010,10,01,04,26,12.90
2010,10,01,04,27,12.80
2010,10,01,04,28,12.80
2010,10,01,04,29,12.80
2010,10,01,04,30,12.70
2010,10,01,04,31,12.70
2010,10,01,04,32,12.60
2010,10,01,04,33,12.60
2010,10,01,04,34,12.50
2010,10,01,04,35,12.50
2010,10,01,04,36,12.40
2010,10,01,04,37,12.30
2010,10,01,04,38,12.30
2010,10,01,04,39,12.20
2010,10,01,04,40,12.10
2010,10,01,04,41,12.10
2010,10,01,04,42,12.00
2010,10,01,04,43,12.00
2010,10,01,04,44,11.90
2010,10,01,04,45,11.90
2010,10,01,04,46,11.90
2010,10,01,04,47,11.80
2010,10,01,04,48,11.80
2010,10,01,04,49,11.80
2010,10,01,04,50,11.80
2010,10,01,04,51,11.80
2010,10,01,04,52,11.70
2010,10,01,04,53,11.70
2010,10,01,04,54,11.60
2010,10,01,04,55,11.60
2010,10,01,04,56,11.60
2010,10,01,04,57,11.60
2010,10,01,04,58,11.60
2010,10,01,04,59,11.60
2010,10,01,05,00,11.50
2010,10,01,05,01,11.40
2010,10,01,05,02,11.40
2010,10,01,05,03,11.40
2010,10,01,05,04,11.40
2010,10,01,05,05,11.40
2010,10,01,05,06,11.30
2010,10,01,05,07,11.30
2010,10,01,05,08,11.30
2010,10,01,05,09,11.30
2010,10,01,05,10,11.20
2010,10,01,05,11,11.20
2010,10,01,05,12,11.20
2010,10,01,05,13,11.10
2010,10,01,05,14,11.10
2010,10,01,05,15,11.10
2010,10,01,05,16,11.10
2010,10,01,05,17,11.10
2010,10,01,05,18,11.10
2010,10,01,05,19,10.90
2010,10,01,05,20,10.90
2010,10,01,05,21,10.90
2010,10,01,05,22,10.90
2010,10,01,05,23,10.90
2010,10,01,05,24,10.90
2010,10,01,05,25,10.90
2010,10,01,05,26,10.90
2010,10,01,05,27,10.90
2010,10,01,05,28,10.90
2010,10,01,05,29,10.90
2010,10,01,05,30,10.90
2010,10,01,05,31,10.90
2010,10,01,05,32,10.90
2010,10,01,05,33,10.80
2010,10,01,05,34,10.80
2010,10,01,05,35,10.90
2010,10,01,05,36,10.90
2010,10,01,05,37,10.90
2010,10,01,05,38,11.10
2010,10,01,05,39,11.10
2010,10,01,05,40,11.20
2010,10,01,05,41,11.20
2010,10,01,05,42,11.30
2010,10,01,05,43,11.40
2010,10,01,05,44,11.40
2010,10,01,05,45,11.40
2010,10,01,05,46,11.50
2010,10,01,05,47,11.60
2010,10,01,05,48,11.60
2010,10,01,05,49,11.60
2010,10,01,05,50,11.70
2010,10,01,05,51,11.70
2010,10,01,05,52,11.80
2010,10,01,05,53,11.80
2010,10,01,05,54,11.90
2010,10,01,05,55,12.00
2010,10,01,05,56,12.00
2010,10,01,05,57,12.10
2010,10,01,05,58,12.10
2010,10,01,05,59,12.10
2010,10,01,06,00,12.10
2010,10,01,06,01,12.00
2010,10,01,06,02,12.00
2010,10,01,06,03,12.00
2010,10,01,06,04,12.00
2010,10,01,06,05,12.10
2010,10,01,06,06,12.20
2010,10,01,06,07,12.20
2010,10,01,06,08,12.30
2010,10,01,06,09,12.30
2010,10,01,06,10,12.30
2010,10,01,06,11,12.40
2010,10,01,06,12,12.40
2010,10,01,06,13,12.40
2010,10,01,06,14,12.50
2010,10,01,06,15,12.50
2010,10,01,06,16,12.50
2010,10,01,06,17,12.50
2010,10,01,06,18,12.50
2010,10,01,06,19,12.60
2010,10,01,06,20,12.60
2010,10,01,06,21,12.60
2010,10,01,06,22,12.60
2010,10,01,06,23,12.70
2010,10,01,06,24,12.70
2010,10,01,06,25,12.70
2010,10,01,06,26,12.80
2010,10,01,06,27,12.80
2010,10,01,06,28,12.80
2010,10,01,06,29,12.90
2010,10,01,06,30,12.90
2010,10,01,06,31,13.00
2010,10,01,06,32,13.00
2010,10,01,06,33,13.00
2010,10,01,06,34,13.10
2010,10,01,06,35,13.10
2010,10,01,06,36,13.10
2010,10,01,06,37,13.10
2010,10,01,06,38,13.20
2010,10,01,06,39,13.30
2010,10,01,06,40,13.30
2010,10,01,06,41,13.30
2010,10,01,06,42,13.30
2010,10,01,06,43,13.30
2010,10,01,06,44,13.20
2010,10,01,06,45,13.20
2010,10,01,06,46,13.10
2010,10,01,06,47,13.10
2010,10,01,06,48,13.10
2010,10,01,06,49,13.10
2010,10,01,06,50,13.10
2010,10,01,06,51,13.10
2010,10,01,06,52,13.20
2010,10,01,06,53,13.20
2010,10,01,06,54,13.10
2010,10,01,06,55,13.00
2010,10,01,06,56,13.00
2010,10,01,06,57,12.90
2010,10,01,06,58,12.80
2010,10,01,06,59,12.80
2010,10,01,07,00,12.70
2010,10,01,07,01,12.60
2010,10,01,07,02,12.60
2010,10,01,07,03,12.60
2010,10,01,07,04,12.50
2010,10,01,07,05,12.50
2010,10,01,07,06,12.40
2010,10,01,07,07,12.30
2010,10,01,07,08,12.20
2010,10,01,07,09,12.20
2010,10,01,07,10,12.10
2010,10,01,07,11,12.00
2010,10,01,07,12,11.90
2010,10,01,07,13,11.90
2010,10,01,07,14,11.80
2010,10,01,07,15,11.70
2010,10,01,07,16,11.70
2010,10,01,07,17,11.70
2010,10,01,07,18,11.70
2010,10,01,07,19,11.80
2010,10,01,07,20,11.90
2010,10,01,07,21,12.00
2010,10,01,07,22,12.00
2010,10,01,07,23,12.00
2010,10,01,07,24,12.00
2010,10,01,07,25,12.10
2010,10,01,07,26,12.10
2010,10,01,07,27,12.10
2010,10,01,07,28,12.00
2010,10,01,07,29,12.00
2010,10,01,07,30,11.90
2010,10,01,07,31,12.00
2010,10,01,07,32,12.00
2010,10,01,07,33,12.00
2010,10,01,07,34,12.10
2010,10,01,07,35,12.10
2010,10,01,07,36,12.20
2010,10,01,07,37,12.30
2010,10,01,07,38,12.50
2010,10,01,07,39,12.60
2010,10,01,07,40,12.70
2010,10,01,07,41,12.80
2010,10,01,07,42,13.00
2010,10,01,07,43,13.10
2010,10,01,07,44,13.20
2010,10,01,07,45,13.30
2010,10,01,07,46,13.30
2010,10,01,07,47,13.30
2010,10,01,07,48,13.30
2010,10,01,07,49,13.30
2010,10,01,07,50,13.20
2010,10,01,07,51,13.10
2010,10,01,07,52,13.10
2010,10,01,07,53,13.20
2010,10,01,07,54,13.20
2010,10,01,07,55,13.20
2010,10,01,07,56,13.20
2010,10,01,07,57,13.30
2010,10,01,07,58,13.30
2010,10,01,07,59,13.30
2010,10,01,08,00,13.40
2010,10,01,08,01,13.40
2010,10,01,08,02,13.40
2010,10,01,08,03,13.50
2010,10,01,08,04,13.50
2010,10,01,08,05,13.50
2010,10,01,08,06,13.50
2010,10,01,08,07,13.40
2010,10,01,08,08,13.40
2010,10,01,08,09,13.40
2010,10,01,08,10,13.50
2010,10,01,08,11,13.50
2010,10,01,08,12,13.50
2010,10,01,08,13,13.50
2010,10,01,08,14,13.60
2010,10,01,08,15,13.60
2010,10,01,08,16,13.60
2010,10,01,08,17,13.60
2010,10,01,08,18,13.70
2010,10,01,08,19,13.70
2010,10,01,08,20,13.80
2010,10,01,08,21,13.80
2010,10,01,08,22,13.90
2010,10,01,08,23,13.90
2010,10,01,08,24,14.00
2010,10,01,08,25,14.00
2010,10,01,08,26,14.20
2010,10,01,08,27,14.30
2010,10,01,08,28,14.40
2010,10,01,08,29,14.50
2010,10,01,08,30,14.60
2010,10,01,08,31,14.70
2010,10,01,08,32,14.80
2010,10,01,08,33,14.80
2010,10,01,08,34,14.90
2010,10,01,08,35,15.00
2010,10,01,08,36,15.10
2010,10,01,08,37,15.20
2010,10,01,08,38,15.20
2010,10,01,08,39,15.30
2010,10,01,08,40,15.30
2010,10,01,08,41,15.40
2010,10,01,08,42,15.40
2010,10,01,08,43,15.50
2010,10,01,08,44,15.60
2010,10,01,08,45,15.60
2010,10,01,08,46,15.70
2010,10,01,08,47,15.80
2010,10,01,08,48,15.80
2010,10,01,08,49,15.90
2010,10,01,08,50,16.00
2010,10,01,08,51,16.10
2010,10,01,08,52,16.20
2010,10,01,08,53,16.30
2010,10,01,08,54,16.30
2010,10,01,08,55,16.40
2010,10,01,08,56,16.40
2010,10,01,08,57,16.50
2010,10,01,08,58,16.60
2010,10,01,08,59,16.70
2010,10,01,09,00,16.70
2010,10,01,09,01,16.70
2010,10,01,09,02,16.60
2010,10,01,09,03,16.60
2010,10,01,09,04,16.60
2010,10,01,09,05,16.70
2010,10,01,09,06,16.70
2010,10,01,09,07,16.70
2010,10,01,09,08,16.70
2010,10,01,09,09,16.80
2010,10,01,09,10,16.80
2010,10,01,09,11,16.80
2010,10,01,09,12,16.70
2010,10,01,09,13,16.70
2010,10,01,09,14,16.80
2010,10,01,09,15,16.80
2010,10,01,09,16,16.80
2010,10,01,09,17,16.80
2010,10,01,09,18,16.80
2010,10,01,09,19,16.80
2010,10,01,09,20,16.90
2010,10,01,09,21,16.90
2010,10,01,09,22,17.00
2010,10,01,09,23,17.00
2010,10,01,09,24,17.00
2010,10,01,09,25,17.10
2010,10,01,09,26,17.10
2010,10,01,09,27,17.20
2010,10,01,09,28,17.20
2010,10,01,09,29,17.20
2010,10,01,09,30,17.30
2010,10,01,09,31,17.30
2010,10,01,09,32,17.30
2010,10,01,09,33,17.30
2010,10,01,09,34,17.40
2010,10,01,09,35,17.40
2010,10,01,09,36,17.40
2010,10,01,09,37,17.50
2010,10,01,09,38,17.50
2010,10,01,09,39,17.50
2010,10,01,09,40,17.50
2010,10,01,09,41,17.40
2010,10,01,09,42,17.50
2010,10,01,09,43,17.50
2010,10,01,09,44,17.60
2010,10,01,09,45,17.60
2010,10,01,09,46,17.70
2010,10,01,09,47,17.70
2010,10,01,09,48,17.80
2010,10,01,09,49,17.80
2010,10,01,09,50,17.90
2010,10,01,09,51,17.90
2010,10,01,09,52,17.90
2010,10,01,09,53,17.90
2010,10,01,09,54,17.90
2010,10,01,09,55,18.10
2010,10,01,09,56,18.10
2010,10,01,09,57,18.10
2010,10,01,09,58,18.10
2010,10,01,09,59,18.20
2010,10,01,10,00,18.20
2010,10,01,10,01,18.20
2010,10,01,10,02,18.20
2010,10,01,10,03,18.30
2010,10,01,10,04,18.30
2010,10,01,10,05,18.30
2010,10,01,10,06,18.30
2010,10,01,10,07,18.40
2010,10,01,10,08,18.40
2010,10,01,10,09,18.40
2010,10,01,10,10,18.40
2010,10,01,10,11,18.40
2010,10,01,10,12,18.40
2010,10,01,10,13,18.40
2010,10,01,10,14,18.30
2010,10,01,10,15,18.20
2010,10,01,10,16,18.10
2010,10,01,10,17,17.90
2010,10,01,10,18,17.70
2010,10,01,10,19,17.50
2010,10,01,10,20,17.40
2010,10,01,10,21,17.40
2010,10,01,10,22,17.40
2010,10,01,10,23,17.40
2010,10,01,10,24,17.30
2010,10,01,10,25,17.20
2010,10,01,10,26,17.20
2010,10,01,10,27,17.30
2010,10,01,10,28,17.30
2010,10,01,10,29,17.40
2010,10,01,10,30,17.50
2010,10,01,10,31,17.50
2010,10,01,10,32,17.40
2010,10,01,10,33,17.40
2010,10,01,10,34,17.30
2010,10,01,10,35,17.20
2010,10,01,10,36,17.20
2010,10,01,10,37,17.00
2010,10,01,10,38,16.90
2010,10,01,10,39,16.90
2010,10,01,10,40,17.00
2010,10,01,10,41,17.00
2010,10,01,10,42,17.00
2010,10,01,10,43,17.00
2010,10,01,10,44,16.90
2010,10,01,10,45,16.70
2010,10,01,10,46,16.70
2010,10,01,10,47,16.70
2010,10,01,10,48,16.70
2010,10,01,10,49,16.80
2010,10,01,10,50,16.90
2010,10,01,10,51,17.00
2010,10,01,10,52,17.10
2010,10,01,10,53,17.20
2010,10,01,10,54,17.30
2010,10,01,10,55,17.30
2010,10,01,10,56,17.40
2010,10,01,10,57,17.40
2010,10,01,10,58,17.50
2010,10,01,10,59,17.70
2010,10,01,11,00,17.70
2010,10,01,11,01,17.80
2010,10,01,11,02,17.90
2010,10,01,11,03,17.90
2010,10,01,11,04,17.90
2010,10,01,11,05,17.90
2010,10,01,11,06,17.80
2010,10,01,11,07,17.80
2010,10,01,11,08,17.70
2010,10,01,11,09,17.70
2010,10,01,11,10,17.70
2010,10,01,11,11,17.70
2010,10,01,11,12,17.70
2010,10,01,11,13,17.70
2010,10,01,11,14,17.70
2010,10,01,11,15,17.60
2010,10,01,11,16,17.60
2010,10,01,11,17,17.60
2010,10,01,11,18,17.70
2010,10,01,11,19,17.80
2010,10,01,11,20,17.80
2010,10,01,11,21,17.80
2010,10,01,11,22,17.80
2010,10,01,11,23,17.90
2010,10,01,11,24,17.90
2010,10,01,11,25,17.90
2010,10,01,11,26,18.10
2010,10,01,11,27,18.10
2010,10,01,11,28,18.20
2010,10,01,11,29,18.10
2010,10,01,11,30,18.00
2010,10,01,11,31,17.90
2010,10,01,11,32,17.90
2010,10,01,11,33,17.90
2010,10,01,11,34,17.90
2010,10,01,11,35,17.90
2010,10,01,11,36,17.90
2010,10,01,11,37,17.90
2010,10,01,11,38,18.00
2010,10,01,11,39,18.10
2010,10,01,11,40,18.10
2010,10,01,11,41,18.10
2010,10,01,11,42,18.00
2010,10,01,11,43,17.90
2010,10,01,11,44,17.90
2010,10,01,11,45,17.80
2010,10,01,11,46,17.70
2010,10,01,11,47,17.60
2010,10,01,11,48,17.60
2010,10,01,11,49,17.50
2010,10,01,11,50,17.40
2010,10,01,11,51,17.10
2010,10,01,11,52,16.80
2010,10,01,11,53,16.40
2010,10,01,11,54,15.90
2010,10,01,11,55,15.70
2010,10,01,11,56,15.50
2010,10,01,11,57,15.40
2010,10,01,11,58,15.30
2010,10,01,11,59,15.40
2010,10,01,12,00,15.50
2010,10,01,12,01,15.60
2010,10,01,12,02,15.70
2010,10,01,12,03,15.80
2010,10,01,12,04,16.00
2010,10,01,12,05,16.20
2010,10,01,12,06,16.30
2010,10,01,12,07,16.50
2010,10,01,12,08,16.60
2010,10,01,12,09,16.50
2010,10,01,12,10,16.40
2010,10,01,12,11,16.30
2010,10,01,12,12,16.00
2010,10,01,12,13,15.80
2010,10,01,12,14,15.50
2010,10,01,12,15,15.40
2010,10,01,12,16,15.40
2010,10,01,12,17,15.40
2010,10,01,12,18,15.60
2010,10,01,12,19,15.50
2010,10,01,12,20,15.30
2010,10,01,12,21,15.30
2010,10,01,12,22,15.30
2010,10,01,12,23,15.40
2010,10,01,12,24,15.60
2010,10,01,12,25,15.60
2010,10,01,12,26,15.70
2010,10,01,12,27,15.70
2010,10,01,12,28,15.80
2010,10,01,12,29,15.90
2010,10,01,12,30,16.00
2010,10,01,12,31,15.80
2010,10,01,12,32,15.60
2010,10,01,12,33,15.50
2010,10,01,12,34,15.50
2010,10,01,12,35,15.40
2010,10,01,12,36,15.30
2010,10,01,12,37,15.20
2010,10,01,12,38,15.20
2010,10,01,12,39,15.20
2010,10,01,12,40,15.10
2010,10,01,12,41,15.10
2010,10,01,12,42,15.10
2010,10,01,12,43,15.00
2010,10,01,12,44,15.10
2010,10,01,12,45,15.30
2010,10,01,12,46,15.30
2010,10,01,12,47,15.40
2010,10,01,12,48,15.40
2010,10,01,12,49,15.50
2010,10,01,12,50,15.70
2010,10,01,12,51,15.70
2010,10,01,12,52,15.70
2010,10,01,12,53,15.80
2010,10,01,12,54,15.80
2010,10,01,12,55,15.90
2010,10,01,12,56,16.10
2010,10,01,12,57,16.10
2010,10,01,12,58,16.20
2010,10,01,12,59,16.30
2010,10,01,13,00,16.30
2010,10,01,13,01,16.30
2010,10,01,13,02,16.30
2010,10,01,13,03,16.30
2010,10,01,13,04,16.20
2010,10,01,13,05,16.20
2010,10,01,13,06,16.30
2010,10,01,13,07,16.30
2010,10,01,13,08,16.30
2010,10,01,13,09,16.20
2010,10,01,13,10,16.20
2010,10,01,13,11,16.30
2010,10,01,13,12,16.40
2010,10,01,13,13,16.50
2010,10,01,13,14,16.60
2010,10,01,13,15,16.80
2010,10,01,13,16,16.90
2010,10,01,13,17,17.10
2010,10,01,13,18,17.30
2010,10,01,13,19,17.30
2010,10,01,13,20,17.30
2010,10,01,13,21,17.40
2010,10,01,13,22,17.50
2010,10,01,13,23,17.50
2010,10,01,13,24,17.60
2010,10,01,13,25,17.70
2010,10,01,13,26,17.70
2010,10,01,13,27,17.90
2010,10,01,13,28,18.00
2010,10,01,13,29,18.10
2010,10,01,13,30,18.20
2010,10,01,13,31,18.30
2010,10,01,13,32,18.40
2010,10,01,13,33,18.50
2010,10,01,13,34,18.70
2010,10,01,13,35,18.60
2010,10,01,13,36,18.60
2010,10,01,13,37,18.60
2010,10,01,13,38,18.70
2010,10,01,13,39,18.80
2010,10,01,13,40,18.90
2010,10,01,13,41,18.90
2010,10,01,13,42,19.00
2010,10,01,13,43,19.00
2010,10,01,13,44,18.90
2010,10,01,13,45,18.90
2010,10,01,13,46,18.90
2010,10,01,13,47,18.90
2010,10,01,13,48,18.90
2010,10,01,13,49,18.90
2010,10,01,13,50,18.90
2010,10,01,13,51,18.90
2010,10,01,13,52,18.90
2010,10,01,13,53,18.90
2010,10,01,13,54,18.80
2010,10,01,13,55,18.80
2010,10,01,13,56,18.90
2010,10,01,13,57,18.80
2010,10,01,13,58,18.80
2010,10,01,13,59,18.80
2010,10,01,14,00,18.80
2010,10,01,14,01,18.70
2010,10,01,14,02,18.60
2010,10,01,14,03,18.60
2010,10,01,14,04,18.60
2010,10,01,14,05,18.70
2010,10,01,14,06,18.60
2010,10,01,14,07,18.60
2010,10,01,14,08,18.60
2010,10,01,14,09,18.70
2010,10,01,14,10,18.80
2010,10,01,14,11,18.70
2010,10,01,14,12,18.80
2010,10,01,14,13,18.90
2010,10,01,14,14,18.90
2010,10,01,14,15,19.10
2010,10,01,14,16,19.10
2010,10,01,14,17,19.30
2010,10,01,14,18,19.40
2010,10,01,14,19,19.50
2010,10,01,14,20,19.60
2010,10,01,14,21,19.60
2010,10,01,14,22,19.70
2010,10,01,14,23,19.70
2010,10,01,14,24,19.80
2010,10,01,14,25,19.70
2010,10,01,14,26,19.60
2010,10,01,14,27,19.50
2010,10,01,14,28,19.50
2010,10,01,14,29,19.50
2010,10,01,14,30,19.60
2010,10,01,14,31,19.60
2010,10,01,14,32,19.70
2010,10,01,14,33,19.80
2010,10,01,14,34,19.80
2010,10,01,14,35,19.80
2010,10,01,14,36,19.90
2010,10,01,14,37,19.90
2010,10,01,14,38,19.90
2010,10,01,14,39,19.90
2010,10,01,14,40,19.90
2010,10,01,14,41,19.90
2010,10,01,14,42,19.90
2010,10,01,14,43,19.80
2010,10,01,14,44,19.60
2010,10,01,14,45,19.50
2010,10,01,14,46,19.50
2010,10,01,14,47,19.50
2010,10,01,14,48,19.50
2010,10,01,14,49,19.40
2010,10,01,14,50,19.50
2010,10,01,14,51,19.40
2010,10,01,14,52,19.20
2010,10,01,14,53,19.10
2010,10,01,14,54,19.10
2010,10,01,14,55,19.20
2010,10,01,14,56,19.30
2010,10,01,14,57,19.40
2010,10,01,14,58,19.50
2010,10,01,14,59,19.50
2010,10,01,15,00,19.50
2010,10,01,15,01,19.50
2010,10,01,15,02,19.60
2010,10,01,15,03,19.60
2010,10,01,15,04,19.70
2010,10,01,15,05,19.70
2010,10,01,15,06,19.70
2010,10,01,15,07,19.70
2010,10,01,15,08,19.80
2010,10,01,15,09,19.80
